This demonstration page uses our WeatherBlox Daily Observations layout. Learn more.

Left ArrowRight Arrow

38.88101, -77.10428

Hourly Observations for May 14, 2016

Temp ( °F °C ) Dew Point ( °F °C ) Humidity (%) Winds ( mph kmh ) Pressure ( in mb ) Visibility ( mi km ) Precip ( " mm )
12:52 am 00:52 Clear 59 15 51 10.6 75 75 N 7 11 29.87 1012 10 16 0.00 0.00
1:52 am 01:52 Clear 61 16.1 47 8.3 60 60 NNW 7 11 29.86 1011 10 16 0.00 0.00
2:52 am 02:52 Clear 61 16.1 50 10 67 67 ESE 5 7 29.87 1012 10 16 0.00 0.00
3:52 am 03:52 Clear 58 14.4 50 10 75 75 SE 5 7 29.87 1012 10 16 0.00 0.00
4:52 am 04:52 Clear 56 13.3 50 10 81 81 Calm 29.85 1011 10 16 0.00 0.00
5:52 am 05:52 Mostly Clear 55 12.8 50 10 83 83 SW 5 7 29.85 1011 10 16 0.00 0.00
6:52 am 06:52 Mostly Sunny 56 13.3 49 9.4 77 77 Calm 29.84 1011 10 16 0.00 0.00
7:52 am 07:52 Mostly Sunny 59 15 53 11.7 81 81 S 3 6 29.84 1010 10 16 0.00 0.00
8:52 am 08:52 Mostly Cloudy 62 16.7 53 11.7 73 73 S 5 7 29.83 1010 10 16 0.00 0.00
9:52 am 09:52 Mostly Cloudy 66 18.9 51 10.6 59 59 S 9 15 29.81 1010 10 16 0.00 0.00
10:52 am 10:52 Mostly Cloudy 70 21.1 53 11.7 55 55 S 10 17 29.78 1009 10 16 0.00 0.00
11:52 am 11:52 Mostly Cloudy 72 22.2 52 11.1 50 50 SSW 14 22 29.77 1008 10 16 0.00 0.00
12:52 pm 12:52 Mostly Cloudy 72 22.2 53 11.7 52 52 S 16 26 29.74 1007 10 16 0.00 0.00
1:52 pm 13:52 Mostly Cloudy 75 23.9 51 10.6 43 43 SSW 15 24 29.71 1006 10 16 0.00 0.00
2:52 pm 14:52 Cloudy 74 23.3 49 9.4 41 41 WSW 14 22 29.69 1006 10 16 0.00 0.00
3:04 pm 15:04 Cloudy with Light Rain 72 22 48 9 44 44 NW 25 41 29.71 1006 10 16 0.00 0.00
3:16 pm 15:16 Cloudy with Light Rain 63 17 54 12 73 73 NW 17 28 29.74 1007 7 11 0.00 0.00
3:34 pm 15:34 Cloudy with Light Rain 61 16 54 12 77 77 WNW 22 35 29.74 1007 10 16 0.00 0.00
3:52 pm 15:52 Cloudy with Light Rain 60 15.6 54 12.2 80 80 WNW 12 19 29.74 1007 6 10 0.01 0.25
4:10 pm 16:10 Cloudy with Rain 59 15 55 13 88 88 W 10 17 29.74 1007 4 6 0.00 0.00
4:33 pm 16:33 Cloudy with Rain 59 15 55 12.8 87 87 SE 18 30 29.65 1004 6 10 0.09 2.29
4:42 pm 16:42 Mostly Cloudy 59 15 55 12.8 87 87 ESE 13 20 29.65 1004 10 16 0.12 3.05
4:52 pm 16:52 Mostly Cloudy 60 15.6 56 13.3 86 86 W 15 24 29.71 1006 10 16 0.12 3.05
5:52 pm 17:52 Partly Cloudy 62 16.7 56 13.3 80 80 SW 7 11 29.69 1006 10 16 0.00 0.00
6:52 pm 18:52 Partly Cloudy 62 16.7 57 13.9 84 84 S 6 9 29.70 1006 10 16 0.00 0.00
7:33 pm 19:33 Mostly Cloudy with Light Rain 64 17.8 57 13.9 78 78 NNW 17 28 29.71 1006 10 16 0.00 0.03
7:52 pm 19:52 Mostly Cloudy 62 16.7 47 8.3 58 58 NW 23 37 29.74 1007 10 16 0.00 0.03
8:52 pm 20:52 Partly Cloudy 59 15 42 5.6 54 54 NW 14 22 29.78 1008 10 16 0.00 0.00
9:52 pm 21:52 Clear 58 14.4 36 2.2 44 44 NW 16 26 29.81 1010 10 16 0.00 0.00
10:52 pm 22:52 Clear 56 13.3 37 2.8 49 49 WNW 16 26 29.83 1010 10 16 0.00 0.00
11:52 pm 23:52 Mostly Clear 54 12.2 38 3.3 55 55 NW 14 22 29.84 1011 10 16 0.00 0.00

Powered by AerisWeather